ECMWFNIL_500_avort_057.txt.gz
Vorticity
3 6 4 -0 2 7 11 13 9 5 5 6 6 8 10 9 8 7 6 7 7 6 6 6 6 7 7 7 7 7 7 7 7 7 7 8 9 11 11 10 7 5
6 7 4 -1 1 5 10 14 11 6 5 5 6 9 10 8 7 5 4 4 3 2 3 3 3 2 3 3 3 4 4 5 5 4 5 6 6 8 10 11 10 9
8 7 5 1 1 4 9 12 11 7 5 4 5 7 7 6 5 4 3 3 1 1 1 1 1 1 0 0 1 1 1 2 3 3 3 4 5 6 6 8 9 9
8 8 5 2 1 4 7 9 10 8 4 4 6 6 6 5 5 5 4 4 3 2 1 1 1 1 1 1 0 1 1 1 1 2 3 3 4 5 5 6 6 6
7 7 5 2 1 4 6 7 9 9 6 5 6 6 5 4 5 5 5 5 5 4 4 3 3 2 2 2 2 2 3 3 2 2 3 3 4 3 3 4 4 5
7 6 4 2 2 4 5 6 8 8 7 6 6 6 4 4 5 5 5 5 5 6 6 5 5 4 3 3 4 4 4 5 5 5 4 4 4 4 3 3 3 4
6 6 5 2 2 4 5 6 6 8 8 7 5 5 4 3 4 5 5 6 6 5 5 5 5 4 4 3 4 4 5 6 6 6 6 7 6 5 5 4 4 3
6 5 5 3 2 3 5 6 5 6 8 8 6 5 4 3 4 5 6 6 6 4 4 4 3 3 4 4 4 5 6 7 6 7 7 7 7 6 7 7 6 4
7 5 4 3 3 3 4 5 5 6 7 8 7 6 5 4 4 6 8 7 5 4 3 3 3 3 4 4 5 5 6 6 7 8 9 7 6 7 8 8 6 5
8 6 5 4 3 3 4 5 5 6 7 7 8 7 5 4 5 7 9 8 5 3 3 3 3 4 4 4 6 7 6 7 7 7 9 8 7 8 9 8 6 6
9 8 6 5 4 3 4 5 5 6 7 7 7 7 6 5 6 8 9 7 4 3 4 3 3 3 3 5 7 7 6 6 7 7 9 9 8 8 8 7 6 7
11 9 8 6 4 4 3 4 5 5 7 7 7 7 6 6 8 9 8 6 3 3 3 3 3 3 4 6 7 6 6 6 6 7 8 10 10 9 8 7 6 7
11 11 10 8 5 4 3 4 5 6 6 7 7 7 6 7 9 8 7 6 3 3 3 3 4 4 4 7 7 5 5 5 6 7 8 10 10 10 9 7 6 7
9 10 11 11 8 6 5 5 6 7 7 7 7 7 7 7 8 8 7 5 4 4 4 3 4 5 5 7 6 4 4 6 7 8 10 11 12 12 12 9 7 8
7 8 9 11 10 8 7 7 8 8 7 7 7 8 8 7 7 7 6 4 4 5 4 4 5 5 5 6 5 3 4 8 9 10 11 13 14 14 14 11 7 7
7 7 8 10 10 9 9 10 11 9 7 8 8 9 8 7 7 7 5 4 5 5 4 4 4 4 5 6 5 3 5 9 11 11 12 14 15 16 15 13 8 7
7 8 8 9 9 8 9 11 11 10 8 8 9 9 8 7 7 7 5 5 6 5 3 4 4 5 7 7 4 4 6 9 11 11 11 13 16 17 16 13 9 7
7 8 9 10 10 8 9 10 10 10 9 8 8 8 7 7 7 7 6 6 6 4 3 4 4 5 7 7 4 4 7 11 12 12 11 12 15 17 16 14 11 9
8 9 10 11 10 9 9 10 10 9 9 8 8 7 6 7 8 8 7 6 6 3 3 4 5 6 7 6 4 5 8 11 12 11 12 14 16 17 16 14 13 12
8 11 13 12 11 10 10 10 9 8 8 8 7 7 8 10 10 9 8 7 5 3 4 6 7 7 8 6 4 5 8 11 11 11 13 15 16 16 14 12 13 14
8 12 14 14 12 11 10 9 8 8 8 8 10 11 12 13 11 9 7 7 6 5 6 8 8 7 7 7 5 5 7 10 12 12 13 13 13 14 13 10 12 13
9 12 14 14 12 11 10 9 8 8 8 9 11 13 13 12 10 8 6 6 6 7 9 9 8 7 7 7 5 4 6 10 12 11 10 11 11 12 12 12 11 10
9 11 13 13 13 12 10 9 9 8 9 11 12 11 10 8 7 5 5 5 5 7 9 8 7 6 6 6 5 4 6 10 10 8 8 10 11 11 12 12 10 7
9 12 13 13 13 12 11 11 11 11 11 11 9 7 5 5 4 3 4 5 5 7 8 8 7 6 6 6 6 5 8 10 10 8 8 11 12 10 10 10 8 6
10 10 12 13 13 13 12 12 12 10 9 7 5 4 3 3 4 4 5 5 5 6 6 6 6 6 6 6 6 6 9 11 10 9 9 11 10 8 7 9 9 8
11 11 12 12 13 12 11 10 8 7 6 6 6 6 6 6 6 6 6 6 5 5 5 5 6 6 5 6 6 6 10 12 11 9 10 10 7 6 7 9 10 9

ECMWFNIL_500_avort_060.txt.gz
Vorticity
3 5 2 2 6 8 8 8 8 7 6 5 5 6 7 7 7 8 9 10 11 11 11 11 10 11 11 11 11 11 10 10 10 10 11 11 11 12 11 9 8 6
2 3 2 1 4 6 9 9 8 7 6 6 6 7 7 7 7 9 9 10 11 9 9 9 9 9 9 9 8 8 6 6 6 6 7 9 10 11 11 10 9 7
2 3 2 1 2 5 9 11 9 7 6 6 7 8 7 7 7 8 9 9 8 7 7 7 7 6 6 5 4 4 3 3 4 5 5 6 7 8 9 9 9 8
3 3 3 2 2 4 8 10 9 8 6 5 7 7 7 6 6 6 6 6 5 5 5 4 5 4 2 3 2 1 2 2 3 4 3 4 5 5 6 7 7 6
5 4 3 2 2 3 6 9 9 8 6 6 6 7 7 5 5 4 3 3 3 3 3 3 2 2 1 1 1 0 1 2 3 3 3 3 3 4 4 4 5 4
6 5 4 3 2 4 6 8 9 8 6 7 6 6 6 5 5 4 3 2 2 2 2 2 2 1 1 1 1 1 2 3 3 3 2 3 4 4 3 4 4 2
7 6 4 3 2 3 6 8 8 8 7 7 7 6 5 5 5 4 4 3 3 3 2 2 3 2 2 2 3 3 3 4 4 4 4 4 4 5 4 5 4 2
7 6 4 3 2 2 5 8 7 7 8 7 6 6 6 5 4 5 5 4 4 5 4 4 4 3 3 3 3 3 4 4 4 5 6 5 4 6 7 7 5 3
7 7 5 3 3 2 4 6 7 6 7 7 6 6 6 5 4 4 5 5 5 6 5 5 5 4 4 3 3 3 4 5 5 6 7 6 5 6 8 8 6 5
9 8 6 4 3 2 2 4 6 6 6 7 7 6 6 6 5 4 5 5 5 6 5 5 5 4 4 3 2 3 4 5 6 6 7 7 5 7 8 8 7 6
11 9 8 6 3 3 2 2 4 6 6 7 7 7 6 6 5 3 4 5 5 6 5 4 4 4 3 2 2 3 4 6 6 6 7 7 6 7 9 8 8 7
12 12 10 8 5 3 2 2 3 5 5 6 7 7 6 6 6 4 4 5 6 7 6 3 3 3 3 3 3 4 5 6 6 5 6 7 7 7 9 10 8 8
12 13 12 11 8 5 3 3 3 4 5 5 5 7 6 6 6 5 4 5 7 8 6 4 4 4 3 3 3 5 6 6 6 5 5 7 8 8 9 10 10 9
10 11 12 12 9 7 5 4 4 3 4 5 5 6 7 7 6 5 4 5 7 9 7 4 4 4 3 3 3 5 6 6 6 5 5 6 8 10 10 11 11 10
9 9 10 11 10 9 7 6 5 4 4 5 5 5 6 6 7 6 5 5 7 10 9 6 4 4 4 3 3 4 5 6 6 5 5 7 8 11 12 12 12 11
8 8 8 9 9 10 9 8 7 5 4 4 5 6 6 6 7 6 5 5 6 8 9 6 3 3 4 2 3 4 5 6 6 5 5 7 9 11 12 13 13 12
6 7 8 9 9 9 8 8 7 6 5 5 5 6 7 7 7 7 6 5 6 8 9 7 4 3 3 2 3 5 6 7 6 4 5 8 9 11 13 13 14 14
6 6 7 7 9 10 9 8 7 6 5 5 6 6 7 8 9 8 7 6 6 8 8 6 4 4 3 2 3 5 6 7 6 4 5 8 10 12 13 13 13 13
7 7 7 7 7 8 9 9 8 7 7 7 7 8 8 9 9 10 9 8 7 8 8 6 5 4 3 1 3 5 7 8 6 4 5 9 11 12 13 12 11 11
8 7 8 8 8 8 8 8 8 8 8 9 9 9 9 9 10 11 10 9 8 8 7 6 6 5 3 1 3 6 8 9 7 4 5 9 11 11 12 11 10 10
11 8 7 8 8 9 9 9 8 7 7 10 10 10 9 9 10 11 11 10 9 8 8 8 7 5 3 2 5 8 9 9 7 5 6 8 9 10 11 10 10 11
14 12 10 9 7 9 11 12 11 9 8 10 10 10 9 9 10 11 11 10 9 9 9 9 8 6 3 3 6 8 9 8 7 6 7 7 9 10 10 10 11 12
16 16 15 12 8 7 10 13 15 13 11 10 10 10 10 11 12 11 10 9 10 10 11 9 6 4 3 5 7 7 7 7 7 8 7 7 9 10 11 11 11 11
14 16 17 13 9 7 9 12 15 15 13 12 11 10 11 11 11 10 8 9 10 12 11 8 5 2 3 5 7 6 7 7 7 8 8 8 10 11 11 11 10 10
13 15 16 14 9 7 8 12 15 15 15 14 12 12 11 10 9 9 11 12 13 13 11 7 5 4 5 6 7 6 6 7 6 7 8 9 10 10 10 9 9 11
13 14 15 14 10 8 9 12 15 15 14 14 13 11 10 9 10 11 12 12 11 9 7 5 4 4 5 6 6 5 5 6 7 8 9 10 9 9 9 9 10 11

ECMWFNIL_500_avort_063.txt.gz
Vorticity
3 4 6 8 8 8 6 6 6 5 6 6 6 7 7 7 7 7 7 6 5 5 5 5 6 8 8 8 10 11 11 11 11 11 11 11 11 12 13 13 12 11
4 5 6 6 6 8 7 6 7 6 6 6 6 7 6 6 6 6 6 6 6 6 7 7 8 10 10 10 11 10 9 10 9 9 8 9 10 10 11 12 13 13
5 6 5 4 5 7 8 8 7 6 6 6 6 6 5 5 5 5 7 7 8 7 8 9 9 9 10 9 8 6 5 6 5 5 5 5 6 7 8 9 10 11
4 6 5 3 4 6 8 9 8 6 5 5 6 6 4 5 5 5 7 7 8 8 7 8 9 9 8 7 5 4 3 4 4 4 4 4 4 4 5 6 6 8
4 6 5 2 2 5 8 9 8 7 6 5 6 6 4 4 4 5 7 7 7 7 7 7 7 7 6 5 4 2 2 3 3 2 3 3 3 4 4 4 4 5
3 5 5 2 2 4 6 8 9 8 7 6 5 6 5 4 4 5 6 6 6 6 6 6 6 6 5 4 3 2 2 2 2 2 3 3 3 3 4 3 3 4
4 4 4 3 2 4 5 7 9 9 7 7 5 6 6 5 4 5 5 5 6 6 5 5 5 4 3 3 2 1 2 2 3 3 3 4 5 5 5 4 4 5
5 5 5 3 2 3 4 5 8 9 7 7 6 6 6 5 4 4 3 5 5 4 4 4 4 3 3 2 2 2 2 2 2 4 5 4 5 6 6 6 4 5
6 6 5 4 3 3 4 4 6 8 7 7 7 7 6 5 4 4 3 4 4 3 3 3 3 3 2 3 3 3 3 2 2 3 5 5 5 6 7 7 5 5
7 7 6 5 4 3 4 4 5 7 8 7 7 7 7 5 4 4 4 4 4 3 3 4 4 3 3 4 5 5 3 2 2 3 5 6 5 6 7 7 7 7
10 9 8 7 5 4 3 3 4 6 7 7 7 7 7 6 5 4 4 4 5 4 4 5 4 4 4 4 5 5 4 2 3 3 4 6 6 6 8 8 7 7
13 12 11 10 8 6 4 4 4 5 6 7 7 7 7 6 5 5 4 4 4 5 5 5 6 5 4 5 5 5 3 2 3 3 4 6 6 6 8 8 8 8
13 14 14 13 11 8 6 5 4 4 6 7 7 7 7 6 6 5 5 4 4 5 5 5 6 6 4 5 5 5 3 2 3 3 4 6 6 7 8 8 8 8
10 12 13 13 12 11 9 7 5 4 4 6 7 7 7 7 7 6 5 5 4 4 5 5 7 7 5 4 5 5 4 2 3 4 5 5 5 6 8 8 8 8
9 10 10 12 12 11 11 9 8 6 4 4 5 6 8 7 7 6 5 5 5 4 5 6 7 8 5 3 4 5 4 2 3 5 5 5 5 5 7 8 8 9
7 9 9 11 11 10 11 11 10 8 5 4 4 5 7 7 7 7 6 5 5 4 5 5 7 9 6 3 4 5 4 3 3 5 6 6 5 5 6 8 9 10
5 7 8 9 10 10 11 11 12 11 7 5 4 4 5 6 7 8 7 7 5 4 5 5 6 9 8 4 3 4 5 4 4 5 6 7 7 4 5 8 10 12
6 6 7 7 8 9 10 11 12 12 10 8 6 5 4 5 6 7 7 8 7 6 5 4 6 9 9 6 3 4 5 4 4 5 6 7 7 5 5 9 12 12
11 8 7 7 7 8 9 10 11 12 12 10 8 7 6 5 5 6 6 8 9 8 8 6 5 8 9 8 4 3 4 4 4 5 6 8 8 5 5 9 13 13
16 13 10 8 8 8 8 9 10 12 12 12 10 9 9 7 5 5 5 6 8 9 10 9 8 8 9 9 7 4 4 4 5 5 6 8 9 6 6 9 12 13
16 17 15 12 9 9 9 8 9 10 11 12 11 10 9 8 7 5 5 5 6 8 10 11 10 9 9 10 8 6 4 3 4 5 5 8 9 7 6 8 12 13
10 14 17 17 14 11 10 9 10 10 9 10 11 11 11 10 8 7 6 6 7 8 10 11 11 10 10 11 11 8 5 3 4 4 5 9 9 7 7 7 10 13
7 9 13 17 18 16 13 11 11 11 10 9 9 10 11 11 12 10 9 9 8 9 11 11 12 11 11 12 12 9 5 3 4 4 5 8 9 7 7 7 9 13
8 8 9 11 14 17 17 14 13 11 11 10 9 10 10 10 11 12 12 11 10 11 12 11 11 12 11 11 12 10 6 3 4 5 5 8 8 7 7 8 10 13
8 7 8 8 9 14 16 16 15 13 11 9 9 10 11 11 12 13 13 13 12 12 13 11 10 10 10 10 11 10 7 3 3 5 6 7 8 7 7 8 10 11
8 7 8 8 8 11 13 14 16 15 13 11 9 8 10 12 13 15 14 14 14 13 12 11 10 10 10 12 13 11 8 4 3 4 7 8 8 7 8 9 10 11

ECMWFNIL_500_avort_069.txt.gz
Vorticity
4 6 6 6 7 8 7 7 8 8 9 9 9 8 8 8 8 7 6 5 5 5 5 4 5 6 7 9 11 11 9 9 9 8 8 9 9 9 8 8 9 9
4 6 6 6 6 7 7 7 7 8 8 9 9 8 8 7 8 7 6 5 4 4 3 4 5 7 8 10 10 8 7 7 7 7 7 8 8 9 8 8 9 10
4 5 6 6 6 7 8 7 6 8 8 9 9 8 7 7 7 7 5 4 4 4 3 5 7 8 9 10 8 6 6 6 5 5 6 6 7 8 8 8 8 9
2 4 5 6 5 6 7 7 7 7 7 8 8 7 7 6 6 5 5 4 3 3 4 6 7 8 9 9 6 5 6 6 5 4 5 6 6 7 8 7 7 7
2 3 5 5 5 5 8 8 8 7 6 6 7 6 6 5 5 5 4 3 3 4 5 6 8 7 7 7 5 5 6 6 5 4 5 5 5 7 8 8 8 6
5 3 4 5 4 4 6 8 9 9 7 6 6 6 5 5 5 4 4 3 3 4 5 6 7 6 7 7 5 4 4 5 4 3 4 5 5 6 7 8 9 8
6 4 3 5 5 4 4 6 8 10 9 8 7 6 5 5 5 4 3 3 3 5 6 6 6 6 6 6 5 4 4 4 3 3 3 4 5 5 6 7 9 9
7 5 4 5 5 5 4 4 6 8 9 9 8 7 6 5 5 4 3 3 4 5 6 6 6 6 5 5 5 5 4 3 3 2 2 3 4 5 5 6 8 9
6 6 5 4 5 5 4 4 5 7 9 9 8 8 8 6 5 5 4 4 5 6 7 6 5 5 5 5 6 5 4 3 3 2 2 3 3 4 5 6 7 8
7 7 6 5 4 5 5 4 3 5 7 9 8 7 8 7 6 6 5 4 5 6 7 6 5 5 4 4 5 5 4 4 4 3 2 2 3 4 5 5 6 7
8 8 8 8 6 5 5 4 3 3 5 7 9 8 7 7 6 6 6 5 5 5 6 6 6 5 4 4 5 5 4 3 3 4 3 2 3 4 5 5 6 7
9 8 9 9 9 8 7 6 4 3 3 4 7 8 8 8 7 6 6 5 5 5 5 6 6 6 5 4 4 5 5 4 3 4 4 4 3 4 5 5 5 6
11 8 9 9 9 9 8 8 6 4 3 3 4 6 7 8 8 7 6 5 5 6 6 6 7 6 6 5 4 4 4 5 5 4 5 4 3 4 5 6 5 4
12 10 10 9 10 11 9 9 8 7 6 3 3 4 5 6 7 8 8 7 6 6 6 8 8 8 8 6 5 5 4 4 6 6 6 4 2 2 4 7 7 4
10 10 10 9 11 13 12 11 10 9 9 7 5 4 3 4 5 6 8 8 8 7 6 7 8 9 9 8 7 7 5 5 5 6 6 6 3 2 3 6 8 6
13 9 9 9 10 13 14 14 13 11 10 9 8 7 6 5 4 3 5 7 8 8 7 7 7 7 8 8 8 8 7 6 6 5 6 6 5 4 3 5 7 8
20 11 9 8 7 10 12 15 15 14 13 11 10 10 8 7 6 4 3 4 6 8 8 8 8 7 7 8 8 8 8 7 6 6 7 6 5 5 4 4 6 7
22 16 11 7 6 7 9 12 13 14 14 14 13 13 11 9 9 6 4 3 3 6 8 8 8 7 7 8 8 8 8 7 6 6 7 7 6 5 4 4 4 6
18 17 13 9 6 6 7 8 11 13 14 15 15 15 15 13 12 10 8 6 4 4 6 6 7 8 8 8 8 8 8 7 6 6 6 8 8 6 4 4 4 5
12 15 14 11 7 6 6 5 7 9 11 13 13 15 17 17 15 13 11 9 7 5 4 4 5 6 7 8 8 8 8 8 7 6 5 7 8 7 5 5 4 4
8 10 12 12 10 8 7 5 5 5 6 9 10 11 14 15 16 16 14 13 11 8 6 5 4 4 5 6 7 7 9 10 9 8 6 6 8 8 6 5 4 4
7 7 9 12 11 10 10 8 7 6 5 7 7 6 8 10 13 15 15 15 14 13 11 9 6 5 4 4 5 5 7 9 11 11 10 8 7 8 8 6 4 4
10 7 7 9 10 12 12 12 11 9 8 8 7 6 6 6 8 11 12 13 13 13 13 12 10 8 6 5 5 5 5 7 8 11 12 11 10 9 9 8 5 4
10 6 7 8 8 9 9 10 12 12 11 10 8 8 7 6 6 7 8 10 11 12 12 12 11 10 9 8 8 8 8 7 6 8 11 13 13 11 9 8 6 5
10 6 6 6 7 7 5 6 8 9 11 12 10 9 9 7 7 7 7 8 10 10 11 11 12 12 11 10 10 10 10 10 8 7 9 14 15 12 10 9 7 5
7 6 7 6 5 5 3 4 5 5 7 9 10 11 10 9 8 7 8 8 8 9 10 10 11 11 11 11 11 11 11 11 11 10 10 13 16 14 10 9 8 6

ECMWFNIL_500_avort_072.txt.gz
Vorticity
5 5 6 7 7 7 7 6 6 7 8 8 8 8 9 9 9 7 7 7 7 6 6 6 8 10 11 9 8 7 7 7 7 8 9 8 8 8 6 6 6 7
5 5 5 6 7 8 7 6 7 6 7 8 8 9 9 8 8 8 7 7 7 5 5 6 8 10 10 7 7 6 6 6 7 7 9 9 9 8 8 7 7 9
4 5 5 5 7 8 7 7 7 6 6 8 8 8 8 8 7 7 7 6 6 5 5 7 8 10 10 6 6 7 5 6 7 7 8 9 9 8 9 9 9 9
4 4 5 6 6 7 8 8 7 6 6 6 6 6 7 7 7 7 6 5 5 5 5 7 9 10 9 6 6 7 6 6 7 8 8 9 9 9 9 9 9 9
3 4 5 6 6 7 8 8 8 7 6 6 5 5 5 6 6 6 5 5 4 4 5 7 9 10 9 7 6 7 6 5 6 6 7 8 8 9 9 9 9 8
3 4 6 5 5 7 7 7 8 9 8 7 6 5 5 5 5 5 4 4 4 4 6 8 9 9 8 6 7 7 5 4 5 5 6 6 7 8 8 9 9 9
4 4 5 6 5 5 6 6 7 9 9 8 7 6 6 5 5 5 4 4 4 4 6 8 8 8 8 7 7 7 5 3 4 4 4 5 6 7 8 9 9 8
6 5 5 7 5 4 5 5 6 8 9 9 8 7 7 6 5 5 4 4 4 5 7 8 9 8 7 7 7 6 5 4 3 3 4 4 4 5 6 8 9 9
5 6 5 6 6 5 4 4 5 7 7 8 8 8 7 7 6 6 6 5 4 6 8 8 8 8 7 7 7 6 5 4 3 2 2 4 4 5 6 6 8 9
7 6 6 5 6 6 5 3 4 6 7 7 7 7 7 7 7 7 6 5 5 5 8 9 8 7 7 6 6 6 6 5 4 3 2 3 3 4 5 5 7 8
11 9 8 6 6 5 5 4 3 4 6 8 8 8 7 6 6 6 6 5 5 5 5 7 8 7 7 6 6 6 6 5 5 4 2 2 3 5 5 5 5 5
13 12 11 9 7 6 5 4 4 4 4 6 7 8 8 8 7 6 6 5 5 5 5 6 6 7 6 7 6 5 5 6 6 5 3 2 2 3 4 5 5 5
11 12 12 11 10 7 6 5 4 4 3 4 5 6 7 8 8 8 7 7 6 6 6 6 6 7 8 8 8 6 5 4 5 6 5 4 2 2 4 5 4 4
11 11 11 11 11 8 6 6 4 4 3 3 3 4 5 6 7 8 8 7 7 7 6 6 6 7 8 8 8 7 5 4 4 6 6 6 4 3 3 4 5 5
12 11 10 10 11 10 8 7 6 5 4 4 3 3 3 4 4 5 7 7 8 7 7 7 7 8 7 7 7 6 6 5 4 5 5 6 6 5 2 2 4 6
13 11 10 11 11 12 12 10 7 6 5 4 5 3 3 3 3 3 4 5 6 7 8 8 8 8 7 6 7 6 5 6 6 6 6 5 5 6 4 3 3 5
16 13 10 10 11 11 12 12 10 8 7 5 4 4 3 3 3 3 3 3 3 5 7 9 9 9 7 6 7 7 6 5 5 6 7 7 6 6 5 4 3 4
18 19 14 10 10 11 11 12 11 10 8 7 6 5 4 4 3 3 3 2 2 3 4 6 8 9 8 7 7 7 7 7 6 6 7 7 6 6 5 5 4 4
10 19 22 16 11 10 10 10 11 12 11 10 9 6 5 5 5 4 4 4 3 3 3 4 5 7 8 8 9 8 8 7 7 6 6 7 7 6 6 6 5 4
1 11 23 23 15 10 11 11 12 13 13 11 11 10 9 8 7 6 7 7 6 5 4 3 3 5 6 7 8 9 9 9 8 7 5 5 6 6 7 7 6 5
4 6 17 24 21 13 12 14 14 12 12 12 12 13 14 12 10 8 8 8 8 8 7 6 5 4 4 5 7 8 9 9 9 9 7 6 6 5 5 7 7 7
7 4 8 18 24 19 12 12 13 12 11 11 10 12 13 12 12 12 11 11 10 9 9 9 8 6 4 3 4 4 6 8 10 10 9 9 8 7 6 5 6 8
6 5 3 9 20 23 14 9 9 10 9 8 8 9 11 12 13 12 11 10 10 10 11 11 10 9 7 6 4 3 3 5 7 9 10 10 9 8 8 8 7 7
4 5 3 5 15 22 18 10 7 7 8 8 7 5 6 8 9 9 8 8 8 9 10 11 10 10 9 8 6 5 4 4 4 5 7 9 9 9 10 10 8 8
9 9 5 4 9 17 18 14 9 7 6 7 6 4 4 5 5 7 9 9 8 8 9 10 11 11 11 10 9 7 6 7 7 7 8 8 7 8 9 9 8 8
19 10 3 4 6 11 15 14 12 10 8 8 7 6 5 4 5 7 8 8 8 7 7 8 9 10 11 11 11 11 10 9 9 9 10 9 8 7 8 8 9 8

ECMWFNIL_500_avort_075.txt.gz
Vorticity
5 6 9 8 7 5 6 7 8 9 9 8 8 7 7 7 7 7 7 8 8 8 8 8 9 10 9 8 7 6 6 7 7 8 7 7 7 6 6 8 10 12
4 5 8 8 8 6 5 6 7 8 9 8 8 8 7 8 8 7 8 8 8 8 8 8 10 10 8 7 6 5 6 6 7 8 8 7 7 7 8 9 10 11
5 4 6 7 7 7 6 6 7 7 7 8 9 8 8 8 8 8 9 8 8 8 9 10 10 8 6 6 5 5 5 6 7 8 8 8 8 8 9 10 11 11
6 4 5 7 6 7 6 6 6 7 7 7 7 7 7 8 8 8 9 9 7 6 8 11 10 8 6 6 5 5 5 6 7 7 7 8 8 8 8 9 10 12
6 5 4 6 6 6 7 7 6 6 7 6 6 6 7 7 7 8 9 9 7 6 8 12 10 7 6 6 5 4 5 5 6 7 6 7 7 7 7 8 9 11
4 5 4 5 7 7 7 7 7 7 7 7 6 6 6 6 6 7 8 8 7 5 8 11 10 7 6 7 5 4 5 5 5 6 6 6 7 6 7 8 8 8
4 4 4 4 6 7 7 6 7 8 8 7 6 5 6 6 6 7 7 7 6 6 8 10 11 9 7 7 7 4 4 5 5 5 5 5 6 6 6 7 8 7
5 4 4 5 6 7 7 6 7 9 9 9 8 6 6 5 6 7 7 7 6 6 8 10 11 10 8 7 7 5 4 4 4 4 4 5 5 6 6 6 7 7
5 4 3 4 5 6 6 5 6 8 8 9 8 7 7 7 7 6 6 7 7 7 8 10 11 10 9 8 7 5 3 3 3 3 4 5 5 5 6 6 7 7
5 4 4 4 4 6 6 5 5 7 8 8 6 6 7 7 7 7 6 7 7 7 8 10 11 10 9 9 7 5 4 3 2 3 3 4 5 5 5 5 6 7
7 5 4 4 4 5 6 5 4 5 7 8 6 6 6 6 7 7 7 7 6 5 7 9 10 9 8 9 8 6 5 4 2 2 2 3 3 4 5 5 5 5
10 9 6 5 5 4 5 5 4 4 5 8 8 6 5 5 6 6 6 6 6 5 5 7 9 9 8 8 9 8 7 6 4 2 1 2 2 4 4 5 5 5
10 11 9 7 7 6 5 4 4 4 4 5 7 8 7 5 5 5 5 5 5 5 4 5 6 8 9 8 8 9 8 7 6 4 2 1 1 2 4 4 5 6
10 11 10 9 8 8 7 5 4 4 4 4 5 7 8 7 6 5 5 6 5 5 4 5 5 6 9 11 10 9 8 7 6 6 4 3 2 1 2 3 4 5
10 9 8 8 8 8 9 7 5 4 4 3 4 6 7 8 7 6 5 6 6 6 6 5 5 6 7 9 10 9 8 7 6 6 5 5 4 2 1 2 3 4
10 9 8 8 8 8 9 9 8 5 4 4 3 4 5 6 7 7 6 6 6 7 7 6 6 7 6 6 8 8 8 7 6 6 6 6 5 4 3 3 3 3
11 10 9 8 8 9 9 9 9 7 5 5 4 3 4 4 5 7 7 7 7 6 8 7 6 6 6 5 6 6 6 6 6 6 6 6 6 5 4 4 4 3
11 11 11 10 8 9 10 10 10 9 7 5 5 4 3 3 3 5 5 6 7 6 7 7 7 7 7 6 6 6 5 5 5 5 5 6 6 6 5 5 5 4
11 12 13 13 11 9 10 11 12 13 11 8 7 4 3 4 3 3 4 3 5 6 5 6 6 7 7 7 6 6 6 6 6 6 6 6 6 7 7 6 5 4
11 14 15 16 14 9 8 10 12 14 14 12 10 7 5 5 4 3 3 3 2 3 3 3 4 4 6 7 7 7 7 8 7 6 6 6 6 7 7 7 6 5
9 12 14 15 16 12 8 8 8 11 14 13 13 11 9 7 5 4 4 3 3 2 2 2 2 2 3 4 5 7 7 8 9 8 7 7 6 6 7 7 6 6
6 7 9 11 14 13 10 9 7 8 11 12 12 13 11 9 8 8 6 5 4 3 3 4 3 2 2 3 4 5 6 8 9 9 8 8 7 7 6 5 5 5
4 3 4 7 12 13 11 9 8 7 8 10 11 11 12 12 11 10 9 8 6 6 6 7 6 4 3 3 3 3 4 6 8 9 10 10 8 7 7 7 6 5
5 4 3 3 7 13 14 12 9 8 7 8 10 11 12 12 11 10 9 9 8 8 8 8 8 7 5 4 4 3 3 4 5 7 9 10 10 9 8 8 8 7
2 4 6 7 6 8 14 14 10 8 7 6 8 10 10 10 10 10 9 10 10 9 9 9 8 7 6 6 5 4 4 4 4 4 6 7 8 8 7 8 8 8
3 3 4 7 8 6 8 13 12 8 7 6 7 8 8 8 9 10 9 10 10 9 9 9 10 9 8 9 8 7 6 6 5 6 7 6 5 5 6 6 6 6